#timestamp,LO_Frequency,Hit,StdDev 
1649257215.4,286046995.7,P
1649257235.2,286046997.5,Y
1649257255.1,286046998.3,P
1649257256.0,286046998.3,N
1649257275.8,286046997.1,N
1649257295.7,286046996.6,Y
1649257315.5,286047002.6,P
1649257335.3,286047004.0,N
1649257355.2,286047003.6,N
1649257375.0,286047002.0,N
1649257375.9,286047002.0,N
1649257395.8,286046998.9,N
1649257415.6,286047001.1,N
1649257435.4,286046996.5,N
1649257455.3,286046997.6,N
1649257475.1,286046995.1,N
1649257495.8,286046995.7,N
1649257515.7,286046992.0,N
1649257535.5,286046992.8,N
1649257555.4,286046990.1,N
1649257575.2,286046990.6,N
1649257595.0,286046990.1,N
1649257595.9,286046990.1,N
1649257615.8,286046990.6,N
1649257635.6,286046993.1,N
1649257655.4,286046990.5,N
1649257675.3,286046991.9,N
1649257695.1,286046991.9,N
1649257715.9,286046990.9,N
1649257735.7,286046988.7,N
1649257755.5,286046988.8,N
1649257775.4,286046989.2,N
1649257795.2,286046989.2,N
1649257815.0,286046990.4,N
1649257815.9,286046990.4,N
1649257835.8,286046990.2,N
1649257855.6,286046990.7,N
1649257875.5,286046991.2,N
1649257895.3,286046989.1,N
1649257915.1,286046991.4,N
1649257935.9,286046988.6,Y
1649257955.7,286046996.7,P
1649257975.5,286046996.7,N
1649257995.4,286046997.4,N
1649258015.2,286046996.8,N
1649258035.1,286046997.3,N
1649258036.0,286046997.3,N
1649258055.8,286046997.3,N
1649258075.6,286046997.0,N
1649258095.5,286046997.7,N
1649258115.3,286046997.0,N
1649258135.1,286046997.8,N
1649258155.9,286046998.0,N
1649258175.7,286046996.0,N
1649258195.6,286046993.4,Y
1649258215.4,286046999.6,P
1649258235.2,286046996.9,N
1649258255.1,286046998.2,N
1649258256.0,286046998.2,N
1649258275.8,286046999.5,N
1649258295.7,286046999.4,N
1649258315.5,286046998.7,N
1649258335.3,286047000.6,N
1649258355.2,286046996.6,N
1649258375.9,286046998.6,N
1649258395.7,286047002.2,N
1649258415.6,286046999.7,N
1649258435.4,286047000.6,N
1649258455.2,286047002.4,N
1649258475.1,286047002.1,N
1649258476.0,286047002.1,N
1649258495.8,286046999.9,N
1649258515.7,286047000.4,N
1649258535.5,286047000.1,N
1649258555.3,286047000.6,N
1649258575.2,286046998.7,N
1649258595.0,286046999.2,N
1649258595.9,286046999.2,N
1649258615.8,286046997.1,N
1649258635.6,286046997.7,N
1649258655.4,286046995.0,Y
1649258675.3,286046998.0,P
1649258695.1,286046997.8,P
1649258715.8,286046995.1,P
1649258735.7,286046995.2,Y
1649258755.5,286046998.1,P
1649258775.4,286046998.9,P
1649258795.2,286046997.4,P
1649258815.0,286046997.7,Y
1649258815.9,286046997.7,P
1649258835.8,286046998.4,P
1649258855.6,286046997.1,P
1649258875.5,286046997.9,Y
1649258895.3,286046996.9,P
1649258915.1,286046997.2,P
1649258935.9,286047000.8,N
1649258955.7,286047000.2,N
1649258975.5,286047002.0,N
1649258995.4,286047005.3,N
1649259015.2,286047007.9,N
1649259035.1,286047014.9,Y
1649259036.0,286047014.9,P
1649259055.8,286047014.7,N
1649259075.6,286047013.7,N
1649259095.5,286047010.9,N
1649259115.3,286047010.8,N
1649259135.1,286047007.3,N
1649259155.9,286047007.5,N
1649259175.7,286047007.5,N
1649259195.6,286047005.7,N
1649259215.4,286047004.1,N
1649259235.2,286047011.9,N
1649259255.1,286047001.5,N
1649259256.0,286047001.5,N
1649259275.8,286047002.0,N
1649259295.6,286047002.2,N
1649259315.5,286047002.4,N
1649259335.3,286047000.2,N
1649259355.2,286047000.5,N
1649259375.9,286047002.5,N
1649259395.7,286047000.3,N
1649259415.6,286046998.5,N
1649259435.4,286047002.3,N
1649259455.2,286047001.6,N
1649259475.1,286047001.5,N
1649259476.0,286047001.5,N
1649259495.8,286047000.9,N
1649259515.7,286047002.8,N
1649259535.5,286047006.0,N
1649259555.3,286047005.6,N
1649259575.2,286047005.8,N
1649259595.0,286047003.4,N
1649259595.9,286047003.4,N
1649259615.7,286047003.4,N
1649259635.6,286047001.6,N
1649259655.4,286047002.5,N
1649259675.3,286047003.9,N
1649259695.1,286047005.6,N
1649259696.0,286047005.6,N
1649259715.8,286047003.4,N
1649259735.7,286047004.2,N
1649259755.5,286047003.6,N
1649259775.3,286047002.9,N
1649259795.2,286047005.9,Y
1649259815.0,286047002.1,P
1649259815.9,286047002.1,P
1649259835.8,286047001.6,P
1649259855.6,286047001.4,Y
1649259875.4,286047002.3,P
1649259895.3,286047001.5,P
1649259915.1,286047003.9,P
1649259935.9,286047003.3,Y
1649259955.7,286047000.2,P
1649259975.5,286047001.0,N
1649259995.4,286046998.7,N
1649260015.2,286047001.2,N
1649260035.0,286046998.4,N
1649260035.9,286046998.4,N
1649260055.8,286046999.3,N
1649260075.6,286046999.1,N
1649260095.5,286046994.9,Y
1649260115.3,286046995.1,P
1649260135.1,286046996.6,N
1649260155.9,286046996.5,N
1649260175.7,286046997.9,N
1649260195.5,286046995.2,Y
1649260215.4,286046999.1,P
1649260235.2,286046998.7,N
1649260255.1,286047000.0,N
1649260256.0,286047000.0,N
1649260275.8,286046998.4,N
1649260295.6,286046998.8,N
1649260315.5,286046999.5,N
1649260335.3,286046999.3,N
1649260355.1,286046998.6,N
1649260375.9,286047000.8,N
1649260395.7,286046998.1,N
1649260415.6,286047002.2,N
1649260435.4,286047002.0,N
1649260455.2,286046998.5,N
1649260475.1,286046998.5,N
1649260476.0,286046998.5,N
1649260495.8,286046998.9,N
1649260515.6,286047002.4,N
1649260535.5,286047004.4,Y
1649260555.3,286047004.4,P
1649260575.2,286047004.0,N
1649260595.9,286047000.3,N
1649260615.7,286046997.7,N
1649260635.6,286046997.4,N
1649260655.4,286046995.0,N
1649260675.2,286046994.8,N
1649260695.1,286046994.3,N
1649260696.0,286046994.3,N
1649260715.8,286046994.8,N
1649260735.7,286046995.9,N
1649260755.5,286046994.3,N
1649260775.3,286046990.8,N
1649260795.2,286046990.2,N
